Time,TemperatureF,DewpointF,PressureIn,WindDirection,WindDirectionDegrees,WindSpeedMPH,WindSpeedGustMPH,Humidity,HourlyPrecipIn,Conditions,Clouds,dailyrainin,SoftwareType,DateUTC
2013-04-23 00:00:00,35.1,31.4,30.60,ENE,67,0.0,19.0,86,0.00,FEW,,0.00,WeatherDisplay:10.37,2013-04-23 04:00:00,
2013-04-23 00:05:00,34.9,31.5,30.60,ENE,67,0.0,0.0,87,0.00,CLR,,0.00,WeatherDisplay:10.37,2013-04-23 04:05:00,
2013-04-23 00:10:00,34.8,31.6,30.60,ENE,67,0.0,0.0,88,0.00,CLR,,0.00,WeatherDisplay:10.37,2013-04-23 04:10:00,
2013-04-23 00:15:00,34.6,31.4,30.60,ENE,67,0.0,0.0,88,0.00,CLR,,0.00,WeatherDisplay:10.37,2013-04-23 04:15:00,
2013-04-23 00:20:00,34.3,31.1,30.60,ENE,67,0.0,0.0,88,0.00,CLR,,0.00,WeatherDisplay:10.37,2013-04-23 04:20:00,
2013-04-23 00:25:00,34.1,31.2,30.60,ENE,67,0.0,0.0,89,0.00,CLR,,0.00,WeatherDisplay:10.37,2013-04-23 04:25:00,
2013-04-23 00:30:00,33.9,31.0,30.59,ENE,67,0.0,0.0,89,0.00,CLR,,0.00,WeatherDisplay:10.37,2013-04-23 04:30:00,
2013-04-23 00:35:00,33.7,30.8,30.60,ENE,67,0.0,0.0,89,0.00,CLR,,0.00,WeatherDisplay:10.37,2013-04-23 04:35:00,
2013-04-23 00:40:00,33.5,30.6,30.59,ENE,67,0.0,0.0,89,0.00,CLR,,0.00,WeatherDisplay:10.37,2013-04-23 04:40:00,
2013-04-23 00:45:00,33.4,30.8,30.60,ENE,67,0.0,0.0,90,0.00,CLR,,0.00,WeatherDisplay:10.37,2013-04-23 04:45:00,
2013-04-23 00:50:00,33.2,30.6,30.59,ENE,67,0.0,0.0,90,0.00,CLR,,0.00,WeatherDisplay:10.37,2013-04-23 04:50:00,
2013-04-23 00:55:00,33.1,30.5,30.59,ENE,67,0.0,0.0,90,0.00,CLR,,0.00,WeatherDisplay:10.37,2013-04-23 04:55:00,
2013-04-23 01:00:00,32.9,30.3,30.59,ENE,67,0.0,0.0,90,0.00,CLR,,0.00,WeatherDisplay:10.37,2013-04-23 05:00:00,
2013-04-23 01:05:00,32.8,30.1,30.59,ENE,67,0.0,0.0,90,0.00,CLR,,0.00,WeatherDisplay:10.37,2013-04-23 05:05:00,
2013-04-23 01:10:00,32.6,30.0,30.59,ENE,67,0.0,0.0,90,0.00,CLR,,0.00,WeatherDisplay:10.37,2013-04-23 05:10:00,
2013-04-23 01:15:00,32.4,29.8,30.59,ENE,67,0.0,0.0,90,0.00,CLR,,0.00,WeatherDisplay:10.37,2013-04-23 05:15:00,
2013-04-23 01:20:00,32.3,29.7,30.58,ENE,67,0.0,0.0,90,0.00,CLR,,0.00,WeatherDisplay:10.37,2013-04-23 05:20:00,
2013-04-23 01:25:00,32.1,29.8,30.58,ENE,67,0.0,0.0,91,0.00,CLR,,0.00,WeatherDisplay:10.37,2013-04-23 05:25:00,
2013-04-23 01:30:00,32.0,29.7,30.58,ENE,67,0.0,0.0,91,0.00,CLR,,0.00,WeatherDisplay:10.37,2013-04-23 05:30:00,
2013-04-23 01:35:00,32.0,29.7,30.58,ENE,67,0.0,0.0,91,0.00,CLR,,0.00,WeatherDisplay:10.37,2013-04-23 05:35:00,
2013-04-23 01:40:00,32.0,29.9,30.57,ENE,67,0.0,0.0,92,0.00,CLR,,0.00,WeatherDisplay:10.37,2013-04-23 05:40:00,
2013-04-23 01:45:00,32.0,29.9,30.57,ENE,67,0.0,0.0,92,0.00,CLR,,0.00,WeatherDisplay:10.37,2013-04-23 05:45:00,
2013-04-23 01:50:00,32.1,30.0,30.57,ENE,67,0.0,0.0,92,0.00,CLR,,0.00,WeatherDisplay:10.37,2013-04-23 05:50:00,
2013-04-23 01:55:00,32.2,30.1,30.57,ENE,67,0.0,0.0,92,0.00,CLR,,0.00,WeatherDisplay:10.37,2013-04-23 05:55:00,
2013-04-23 02:00:00,32.3,30.2,30.57,ENE,67,0.0,0.0,92,0.00,CLR,,0.00,WeatherDisplay:10.37,2013-04-23 06:00:00,
2013-04-23 02:05:00,32.4,30.6,30.56,ENE,67,0.0,1.0,93,0.00,CLR,,0.00,WeatherDisplay:10.37,2013-04-23 06:05:00,
2013-04-23 02:10:00,32.5,30.7,30.56,ENE,67,0.0,1.0,93,0.00,CLR,,0.00,WeatherDisplay:10.37,2013-04-23 06:10:00,
2013-04-23 02:15:00,32.7,30.6,30.56,ENE,62,0.0,1.0,92,0.00,CLR,,0.00,WeatherDisplay:10.37,2013-04-23 06:15:00,
2013-04-23 02:20:00,32.9,30.8,30.56,NE,49,0.0,0.0,92,0.00,CLR,,0.00,WeatherDisplay:10.37,2013-04-23 06:20:00,
2013-04-23 02:25:00,33.1,31.0,30.56,NE,46,0.0,1.0,92,0.00,CLR,,0.00,WeatherDisplay:10.37,2013-04-23 06:25:00,
2013-04-23 02:30:00,33.3,31.0,30.55,NE,37,0.0,2.0,91,0.00,CLR,,0.00,WeatherDisplay:10.37,2013-04-23 06:30:00,
2013-04-23 02:35:00,33.4,30.8,30.55,NNE,17,1.0,2.0,90,0.00,CLR,,0.00,WeatherDisplay:10.37,2013-04-23 06:35:00,
2013-04-23 02:40:00,33.6,31.0,30.55,North,350,0.0,1.0,90,0.00,CLR,,0.00,WeatherDisplay:10.37,2013-04-23 06:40:00,
2013-04-23 02:45:00,33.8,30.9,30.55,North,351,0.0,2.0,89,0.00,CLR,,0.00,WeatherDisplay:10.37,2013-04-23 06:45:00,
2013-04-23 02:50:00,33.9,31.0,30.54,NNW,346,0.0,2.0,89,0.00,BKN,,0.00,WeatherDisplay:10.37,2013-04-23 06:50:00,
2013-04-23 02:55:00,34.1,31.2,30.54,North,357,1.0,3.0,89,0.00,BKN,,0.00,WeatherDisplay:10.37,2013-04-23 06:55:00,
2013-04-23 03:00:00,34.2,31.0,30.54,NNE,22,0.0,1.0,88,0.00,BKN,,0.00,WeatherDisplay:10.37,2013-04-23 07:00:00,
2013-04-23 03:05:00,34.3,31.1,30.54,NE,55,0.0,0.0,88,0.00,OVC,,0.00,WeatherDisplay:10.37,2013-04-23 07:05:00,
2013-04-23 03:15:00,34.5,31.4,30.53,NE,40,0.0,3.0,88,0.00,OVC,,0.00,WeatherDisplay:10.37,2013-04-23 07:15:00,
2013-04-23 03:20:00,34.7,31.2,30.53,NNE,19,0.0,3.0,87,0.00,OVC,,0.00,WeatherDisplay:10.37,2013-04-23 07:20:00,
2013-04-23 03:25:00,34.8,31.3,30.53,North,11,0.0,3.0,87,0.00,OVC,,0.00,WeatherDisplay:10.37,2013-04-23 07:25:00,
2013-04-23 03:30:00,34.9,31.1,30.53,NNE,14,0.0,2.0,86,0.00,OVC,,0.00,WeatherDisplay:10.37,2013-04-23 07:30:00,
2013-04-23 03:35:00,35.0,31.2,30.53,North,1,0.0,1.0,86,0.00,OVC,,0.00,WeatherDisplay:10.37,2013-04-23 07:35:00,
2013-04-23 03:40:00,35.0,31.2,30.53,NNW,345,0.0,0.0,86,0.00,OVC,,0.00,WeatherDisplay:10.37,2013-04-23 07:40:00,
2013-04-23 03:45:00,35.1,31.3,30.53,NNW,348,0.0,1.0,86,0.00,OVC,,0.00,WeatherDisplay:10.37,2013-04-23 07:45:00,
2013-04-23 03:50:00,35.2,31.1,30.52,North,9,0.0,3.0,85,0.00,OVC,,0.00,WeatherDisplay:10.37,2013-04-23 07:50:00,
2013-04-23 03:55:00,35.3,31.2,30.52,NNE,27,0.0,0.0,85,0.00,OVC,,0.00,WeatherDisplay:10.37,2013-04-23 07:55:00,
2013-04-23 04:00:00,35.3,31.2,30.52,NNE,24,0.0,0.0,85,0.00,OVC,,0.00,WeatherDisplay:10.37,2013-04-23 08:00:00,
2013-04-23 04:05:00,35.4,31.3,30.52,NNE,14,1.0,5.0,85,0.00,OVC,,0.00,WeatherDisplay:10.37,2013-04-23 08:05:00,
2013-04-23 04:10:00,35.4,31.4,30.52,North,2,0.0,2.0,85,0.00,OVC,,0.00,WeatherDisplay:10.37,2013-04-23 08:10:00,
2013-04-23 04:15:00,35.5,31.4,30.52,North,358,0.0,5.0,85,0.00,OVC,,0.00,WeatherDisplay:10.37,2013-04-23 08:15:00,
2013-04-23 04:20:00,35.6,31.5,30.52,North,9,0.0,2.0,85,0.00,OVC,,0.00,WeatherDisplay:10.37,2013-04-23 08:20:00,
2013-04-23 04:25:00,35.6,31.2,30.52,North,6,1.0,3.0,84,0.00,OVC,,0.00,WeatherDisplay:10.37,2013-04-23 08:25:00,
2013-04-23 04:30:00,35.7,31.3,30.51,North,1,1.0,3.0,84,0.00,OVC,,0.00,WeatherDisplay:10.37,2013-04-23 08:30:00,
2013-04-23 04:35:00,35.7,31.3,30.51,North,351,0.0,3.0,84,0.00,OVC,,0.00,WeatherDisplay:10.37,2013-04-23 08:35:00,
2013-04-23 04:40:00,35.7,31.4,30.51,North,7,0.0,2.0,84,0.00,OVC,,0.00,WeatherDisplay:10.37,2013-04-23 08:40:00,
2013-04-23 04:45:00,35.8,31.4,30.51,NNE,18,2.0,4.0,84,0.00,OVC,,0.00,WeatherDisplay:10.37,2013-04-23 08:45:00,
2013-04-23 04:50:00,35.8,31.4,30.51,North,355,1.0,4.0,84,0.00,OVC,,0.00,WeatherDisplay:10.37,2013-04-23 08:50:00,
2013-04-23 04:55:00,35.9,31.5,30.50,North,358,0.0,5.0,84,0.00,OVC,,0.00,WeatherDisplay:10.37,2013-04-23 08:55:00,
2013-04-23 05:00:00,35.9,31.5,30.51,North,5,1.0,3.0,84,0.00,OVC,,0.00,WeatherDisplay:10.37,2013-04-23 09:00:00,
2013-04-23 05:05:00,35.9,31.5,30.51,NNW,343,1.0,3.0,84,0.00,OVC,,0.00,WeatherDisplay:10.37,2013-04-23 09:05:00,
2013-04-23 05:10:00,35.9,31.5,30.50,North,351,1.0,2.0,84,0.00,OVC,,0.00,WeatherDisplay:10.37,2013-04-23 09:10:00,
2013-04-23 05:15:00,36.0,31.6,30.50,North,11,0.0,5.0,84,0.00,OVC,,0.00,WeatherDisplay:10.37,2013-04-23 09:15:00,
2013-04-23 05:20:00,36.0,31.7,30.50,NNE,24,0.0,2.0,84,0.00,OVC,,0.00,WeatherDisplay:10.37,2013-04-23 09:20:00,
2013-04-23 05:25:00,36.1,31.7,30.51,NNE,30,1.0,4.0,84,0.00,OVC,,0.00,WeatherDisplay:10.37,2013-04-23 09:25:00,
2013-04-23 05:30:00,36.1,31.7,30.51,NE,36,0.0,3.0,84,0.00,OVC,,0.00,WeatherDisplay:10.37,2013-04-23 09:30:00,
2013-04-23 05:35:00,36.2,31.8,30.51,NNE,33,0.0,5.0,84,0.00,OVC,,0.00,WeatherDisplay:10.37,2013-04-23 09:35:00,
2013-04-23 05:40:00,36.2,32.1,30.50,NNE,22,0.0,3.0,85,0.00,OVC,,0.00,WeatherDisplay:10.37,2013-04-23 09:40:00,
2013-04-23 05:45:00,36.2,31.8,30.50,NNE,21,0.0,3.0,84,0.00,OVC,,0.00,WeatherDisplay:10.37,2013-04-23 09:45:00,
2013-04-23 05:50:00,36.3,31.9,30.50,NNE,21,0.0,1.0,84,0.00,OVC,,0.00,WeatherDisplay:10.37,2013-04-23 09:50:00,
2013-04-23 05:55:00,36.3,31.9,30.50,NNE,19,0.0,3.0,84,0.00,OVC,,0.00,WeatherDisplay:10.37,2013-04-23 09:55:00,
2013-04-23 06:00:00,36.3,32.0,30.50,NNE,19,0.0,1.0,84,0.00,OVC,,0.00,WeatherDisplay:10.37,2013-04-23 10:00:00,
2013-04-23 06:05:00,36.4,32.0,30.50,NNE,18,0.0,1.0,84,0.00,OVC,,0.00,WeatherDisplay:10.37,2013-04-23 10:05:00,
2013-04-23 06:10:00,36.4,32.0,30.50,NNE,17,0.0,2.0,84,0.00,OVC,,0.00,WeatherDisplay:10.37,2013-04-23 10:10:00,
2013-04-23 06:15:00,36.4,32.3,30.50,NNE,23,1.0,3.0,85,0.00,OVC,,0.00,WeatherDisplay:10.37,2013-04-23 10:15:00,
2013-04-23 06:25:00,36.5,32.1,30.50,NW,325,1.0,5.0,84,0.00,OVC,,0.00,WeatherDisplay:10.37,2013-04-23 10:25:00,
2013-04-23 06:30:00,36.6,32.2,30.50,NW,319,0.0,2.0,84,0.00,OVC,,0.00,WeatherDisplay:10.37,2013-04-23 10:30:00,
2013-04-23 06:35:00,36.6,32.2,30.50,North,355,0.0,5.0,84,0.00,OVC,,0.00,WeatherDisplay:10.37,2013-04-23 10:35:00,
2013-04-23 06:40:00,36.6,32.2,30.50,North,9,0.0,2.0,84,0.00,OVC,,0.00,WeatherDisplay:10.37,2013-04-23 10:40:00,
2013-04-23 06:45:00,36.7,32.3,30.50,NNE,16,0.0,3.0,84,0.00,OVC,,0.00,WeatherDisplay:10.37,2013-04-23 10:45:00,
2013-04-23 06:50:00,36.7,32.4,30.50,NNE,15,1.0,3.0,84,0.00,OVC,,0.00,WeatherDisplay:10.37,2013-04-23 10:50:00,
2013-04-23 06:55:00,36.8,32.4,30.50,NNE,33,0.0,4.0,84,0.00,OVC,,0.00,WeatherDisplay:10.37,2013-04-23 10:55:00,
2013-04-23 07:00:00,36.9,32.5,30.50,NE,45,0.0,1.0,84,0.00,OVC,,0.00,WeatherDisplay:10.37,2013-04-23 11:00:00,
2013-04-23 07:05:00,36.9,32.5,30.50,NE,47,1.0,3.0,84,0.00,OVC,,0.00,WeatherDisplay:10.37,2013-04-23 11:05:00,
2013-04-23 07:10:00,37.0,32.6,30.50,NE,42,0.0,3.0,84,0.00,OVC,,0.00,WeatherDisplay:10.37,2013-04-23 11:10:00,
2013-04-23 07:20:00,37.1,32.8,30.50,North,352,0.0,0.0,84,0.00,OVC,,0.00,WeatherDisplay:10.37,2013-04-23 11:20:00,
2013-04-23 07:25:00,37.3,32.9,30.50,NNE,19,2.0,4.0,84,0.00,OVC,,0.00,WeatherDisplay:10.37,2013-04-23 11:25:00,
2013-04-23 07:30:00,37.4,33.0,30.50,NE,35,1.0,5.0,84,0.00,OVC,,0.00,WeatherDisplay:10.37,2013-04-23 11:30:00,
2013-04-23 07:35:00,37.5,33.4,30.50,NNE,25,0.0,5.0,85,0.00,OVC,,0.00,WeatherDisplay:10.37,2013-04-23 11:35:00,
2013-04-23 07:40:00,37.6,33.8,30.50,NE,36,1.0,5.0,86,0.00,OVC,,0.00,WeatherDisplay:10.37,2013-04-23 11:40:00,
2013-04-23 07:45:00,37.6,33.8,30.50,NE,51,0.0,5.0,86,0.00,OVC,,0.00,WeatherDisplay:10.37,2013-04-23 11:45:00,
2013-04-23 07:50:00,37.6,33.8,30.50,NE,36,1.0,5.0,86,0.00,OVC,,0.00,WeatherDisplay:10.37,2013-04-23 11:50:00,
2013-04-23 07:55:00,37.6,33.8,30.50,NNE,15,0.0,5.0,86,0.00,OVC,,0.00,WeatherDisplay:10.37,2013-04-23 11:55:00,
2013-04-23 08:00:00,37.6,34.0,30.50,NNE,16,1.0,5.0,87,0.00,OVC,,0.00,WeatherDisplay:10.37,2013-04-23 12:00:00,
2013-04-23 08:05:00,37.5,34.3,30.50,NNE,30,1.0,5.0,88,0.00,OVC,,0.00,WeatherDisplay:10.37,2013-04-23 12:05:00,
2013-04-23 08:10:00,37.5,34.3,30.50,NNE,33,2.0,5.0,88,0.00,OVC,,0.00,WeatherDisplay:10.37,2013-04-23 12:10:00,
2013-04-23 08:15:00,37.5,34.6,30.50,North,9,0.0,5.0,89,0.00,OVC,,0.00,WeatherDisplay:10.37,2013-04-23 12:15:00,
2013-04-23 08:20:00,37.5,34.6,30.50,NNE,22,1.0,5.0,89,0.00,OVC,,0.00,WeatherDisplay:10.37,2013-04-23 12:20:00,
2013-04-23 08:25:00,37.5,34.6,30.50,NNE,17,1.0,3.0,89,0.00,OVC,,0.00,WeatherDisplay:10.37,2013-04-23 12:25:00,
2013-04-23 08:30:00,37.5,34.8,30.49,NNE,20,2.0,6.0,90,0.00,OVC,,0.00,WeatherDisplay:10.37,2013-04-23 12:30:00,
2013-04-23 08:35:00,37.4,34.8,30.49,NNE,27,1.0,4.0,90,0.00,OVC,,0.00,WeatherDisplay:10.37,2013-04-23 12:35:00,
2013-04-23 08:40:00,37.4,35.0,30.49,NE,35,1.0,2.0,91,0.00,OVC,,0.00,WeatherDisplay:10.37,2013-04-23 12:40:00,
2013-04-23 08:45:00,37.3,34.9,30.49,NNW,347,0.0,2.0,91,0.00,OVC,,0.00,WeatherDisplay:10.37,2013-04-23 12:45:00,
2013-04-23 08:50:00,37.3,35.2,30.49,North,357,1.0,4.0,92,0.00,OVC,,0.00,WeatherDisplay:10.37,2013-04-23 12:50:00,
2013-04-23 08:55:00,37.3,35.2,30.49,North,3,1.0,4.0,92,0.00,OVC,,0.00,WeatherDisplay:10.37,2013-04-23 12:55:00,
2013-04-23 09:00:00,37.3,35.2,30.49,North,6,0.0,3.0,92,0.00,OVC,,0.00,WeatherDisplay:10.37,2013-04-23 13:00:00,
2013-04-23 09:05:00,37.3,35.2,30.48,NNE,32,1.0,3.0,92,0.00,OVC,,0.00,WeatherDisplay:10.37,2013-04-23 13:05:00,
2013-04-23 09:10:00,37.3,35.2,30.48,NE,39,2.0,8.0,92,0.00,OVC,,0.00,WeatherDisplay:10.37,2013-04-23 13:10:00,
2013-04-23 09:15:00,37.3,35.5,30.48,NE,40,0.0,4.0,93,0.00,OVC,,0.00,WeatherDisplay:10.37,2013-04-23 13:15:00,
2013-04-23 09:20:00,37.4,35.6,30.48,NE,36,2.0,5.0,93,0.00,-DZ,,0.00,WeatherDisplay:10.37,2013-04-23 13:20:00,
2013-04-23 09:25:00,37.4,35.6,30.48,NNE,27,1.0,4.0,93,0.00,-DZ,,0.00,WeatherDisplay:10.37,2013-04-23 13:25:00,
2013-04-23 09:30:00,37.4,35.6,30.47,NNE,28,1.0,5.0,93,0.00,-DZ,,0.00,WeatherDisplay:10.37,2013-04-23 13:30:00,
2013-04-23 09:35:00,37.5,35.7,30.47,North,7,2.0,4.0,93,0.00,-DZ,,0.00,WeatherDisplay:10.37,2013-04-23 13:35:00,
2013-04-23 09:40:00,37.5,35.7,30.47,NNW,343,0.0,4.0,93,0.00,-DZ,,0.00,WeatherDisplay:10.37,2013-04-23 13:40:00,
2013-04-23 09:45:00,37.6,35.8,30.47,North,11,1.0,4.0,93,0.00,-DZ,,0.00,WeatherDisplay:10.37,2013-04-23 13:45:00,
2013-04-23 09:50:00,37.7,35.9,30.47,North,7,2.0,8.0,93,0.00,-DZ,,0.00,WeatherDisplay:10.37,2013-04-23 13:50:00,
2013-04-23 09:55:00,37.7,35.9,30.47,NNE,16,1.0,8.0,93,0.00,-DZ,,0.00,WeatherDisplay:10.37,2013-04-23 13:55:00,
2013-04-23 10:00:00,37.7,35.9,30.47,NNE,23,0.0,6.0,93,0.00,-DZ,,0.00,WeatherDisplay:10.37,2013-04-23 14:00:00,
2013-04-23 10:05:00,37.7,35.9,30.47,North,10,3.0,6.0,93,0.00,-DZ,,0.00,WeatherDisplay:10.37,2013-04-23 14:05:00,
2013-04-23 10:10:00,37.7,35.9,30.47,North,349,1.0,4.0,93,0.00,-DZ,,0.00,WeatherDisplay:10.37,2013-04-23 14:10:00,
2013-04-23 10:15:00,37.8,36.0,30.47,NNE,15,0.0,5.0,93,0.00,-DZ,,0.00,WeatherDisplay:10.37,2013-04-23 14:15:00,
2013-04-23 10:20:00,37.9,36.0,30.46,NE,44,1.0,5.0,93,0.00,-DZ,,0.00,WeatherDisplay:10.37,2013-04-23 14:20:00,
2013-04-23 10:25:00,37.9,36.1,30.46,NNE,16,2.0,8.0,93,0.00,-DZ,,0.00,WeatherDisplay:10.37,2013-04-23 14:25:00,
2013-04-23 10:30:00,37.9,36.1,30.46,NNE,19,1.0,8.0,93,0.00,-DZ,,0.00,WeatherDisplay:10.37,2013-04-23 14:30:00,
2013-04-23 10:35:00,37.9,36.1,30.46,NNE,30,0.0,4.0,93,0.00,-DZ,,0.00,WeatherDisplay:10.37,2013-04-23 14:35:00,
2013-04-23 10:40:00,38.0,36.2,30.46,NNE,17,1.0,4.0,93,0.00,-DZ,,0.00,WeatherDisplay:10.37,2013-04-23 14:40:00,
2013-04-23 10:45:00,38.1,36.2,30.46,NNE,31,1.0,3.0,93,0.00,-DZ,,0.00,WeatherDisplay:10.37,2013-04-23 14:45:00,
2013-04-23 10:50:00,38.1,36.3,30.46,NE,40,2.0,4.0,93,0.00,-DZ,,0.00,WeatherDisplay:10.37,2013-04-23 14:50:00,
2013-04-23 10:55:00,38.2,36.4,30.46,NE,41,1.0,8.0,93,0.00,-DZ,,0.00,WeatherDisplay:10.37,2013-04-23 14:55:00,
2013-04-23 11:00:00,38.3,36.4,30.46,NE,38,0.0,4.0,93,0.00,-DZ,,0.00,WeatherDisplay:10.37,2013-04-23 15:00:00,
2013-04-23 11:05:00,38.3,36.2,30.46,NNE,22,2.0,6.0,92,0.00,-DZ,,0.00,WeatherDisplay:10.37,2013-04-23 15:05:00,
2013-04-23 11:10:00,38.4,36.3,30.46,NE,34,0.0,3.0,92,0.00,-DZ,,0.00,WeatherDisplay:10.37,2013-04-23 15:10:00,
2013-04-23 11:15:00,38.5,36.7,30.46,NNE,33,0.0,2.0,93,0.00,-DZ,,0.00,WeatherDisplay:10.37,2013-04-23 15:15:00,
2013-04-23 11:20:00,38.6,36.8,30.45,NNE,33,0.0,4.0,93,0.00,-DZ,,0.00,WeatherDisplay:10.37,2013-04-23 15:20:00,
2013-04-23 11:25:00,38.6,36.8,30.45,NE,37,1.0,8.0,93,0.00,-DZ,,0.00,WeatherDisplay:10.37,2013-04-23 15:25:00,
2013-04-23 11:30:00,38.7,36.9,30.45,NNE,14,1.0,5.0,93,0.00,-DZ,,0.00,WeatherDisplay:10.37,2013-04-23 15:30:00,
2013-04-23 11:35:00,38.8,36.9,30.45,North,7,2.0,4.0,93,0.00,-DZ,,0.00,WeatherDisplay:10.37,2013-04-23 15:35:00,
2013-04-23 11:40:00,38.8,36.9,30.45,NNE,31,0.0,3.0,93,0.00,-DZ,,0.00,WeatherDisplay:10.37,2013-04-23 15:40:00,
2013-04-23 11:45:00,38.9,37.1,30.45,NE,34,1.0,8.0,93,0.00,-DZ,,0.00,WeatherDisplay:10.37,2013-04-23 15:45:00,
2013-04-23 11:50:00,39.0,36.9,30.45,NNE,23,3.0,10.0,92,0.00,-DZ,,0.00,WeatherDisplay:10.37,2013-04-23 15:50:00,
2013-04-23 11:55:00,39.0,36.9,30.45,NNE,26,2.0,5.0,92,0.00,-DZ,,0.00,WeatherDisplay:10.37,2013-04-23 15:55:00,
2013-04-23 12:00:00,39.0,36.8,30.44,NNE,28,3.0,7.0,92,0.00,-DZ,,0.00,WeatherDisplay:10.37,2013-04-23 16:00:00,
2013-04-23 12:05:00,39.0,36.9,30.44,NNE,30,0.0,3.0,92,0.00,-DZ,,0.00,WeatherDisplay:10.37,2013-04-23 16:05:00,
2013-04-23 12:10:00,39.1,37.0,30.44,NE,45,2.0,6.0,92,0.00,-DZ,,0.00,WeatherDisplay:10.37,2013-04-23 16:10:00,
2013-04-23 12:15:00,39.1,37.0,30.43,NE,48,1.0,10.0,92,0.00,-DZ,,0.00,WeatherDisplay:10.37,2013-04-23 16:15:00,
2013-04-23 12:20:00,39.2,37.1,30.43,NE,54,1.0,3.0,92,0.00,-DZ,,0.00,WeatherDisplay:10.37,2013-04-23 16:20:00,
2013-04-23 12:25:00,39.3,37.2,30.43,ENE,65,2.0,4.0,92,0.00,-DZ,,0.00,WeatherDisplay:10.37,2013-04-23 16:25:00,
2013-04-23 12:30:00,39.3,37.2,30.43,ENE,60,1.0,10.0,92,0.00,-DZ,,0.00,WeatherDisplay:10.37,2013-04-23 16:30:00,
2013-04-23 12:35:00,39.4,37.3,30.42,NE,49,1.0,3.0,92,0.00,-DZ,,0.00,WeatherDisplay:10.37,2013-04-23 16:35:00,
2013-04-23 12:40:00,39.4,37.3,30.42,NNE,28,2.0,10.0,92,0.00,-DZ,,0.00,WeatherDisplay:10.37,2013-04-23 16:40:00,
2013-04-23 12:45:00,39.4,37.0,30.42,NE,35,2.0,10.0,91,0.00,-DZ,,0.00,WeatherDisplay:10.37,2013-04-23 16:45:00,
2013-04-23 12:50:00,39.4,37.3,30.42,NNE,33,2.0,8.0,92,0.00,-DZ,,0.00,WeatherDisplay:10.37,2013-04-23 16:50:00,
2013-04-23 12:55:00,39.4,37.3,30.41,NNE,26,2.0,10.0,92,0.00,-DZ,,0.00,WeatherDisplay:10.37,2013-04-23 16:55:00,
2013-04-23 13:00:00,39.4,37.3,30.41,NE,38,3.0,6.0,92,0.00,-DZ,,0.00,WeatherDisplay:10.37,2013-04-23 17:00:00,
2013-04-23 13:05:00,39.5,37.4,30.41,NE,40,1.0,4.0,92,0.00,-DZ,,0.00,WeatherDisplay:10.37,2013-04-23 17:05:00,
2013-04-23 13:10:00,39.5,37.4,30.41,ENE,57,3.0,8.0,92,0.00,-DZ,,0.00,WeatherDisplay:10.37,2013-04-23 17:10:00,
2013-04-23 13:15:00,39.5,37.4,30.40,ENE,64,3.0,10.0,92,0.00,-DZ,,0.00,WeatherDisplay:10.37,2013-04-23 17:15:00,
2013-04-23 13:20:00,39.6,37.4,30.40,ENE,57,2.0,4.0,92,0.00,-DZ,,0.00,WeatherDisplay:10.37,2013-04-23 17:20:00,
2013-04-23 13:25:00,39.6,37.5,30.40,NNE,22,1.0,6.0,92,0.00,-DZ,,0.00,WeatherDisplay:10.37,2013-04-23 17:25:00,
2013-04-23 13:30:00,39.7,37.6,30.40,NE,38,1.0,4.0,92,0.00,-DZ,,0.00,WeatherDisplay:10.37,2013-04-23 17:30:00,
2013-04-23 13:35:00,39.7,37.8,30.40,NE,55,1.0,4.0,93,0.00,-DZ,,0.00,WeatherDisplay:10.37,2013-04-23 17:35:00,
2013-04-23 13:40:00,39.8,37.9,30.39,NE,40,2.0,4.0,93,0.00,-DZ,,0.00,WeatherDisplay:10.37,2013-04-23 17:40:00,
2013-04-23 13:45:00,39.7,37.9,30.39,NNE,22,1.0,4.0,93,0.00,-DZ,,0.00,WeatherDisplay:10.37,2013-04-23 17:45:00,
2013-04-23 13:50:00,39.8,37.9,30.39,NNE,25,1.0,10.0,93,0.00,-DZ,,0.00,WeatherDisplay:10.37,2013-04-23 17:50:00,
2013-04-23 13:55:00,39.8,37.9,30.39,NE,49,2.0,5.0,93,0.00,-DZ,,0.00,WeatherDisplay:10.37,2013-04-23 17:55:00,
2013-04-23 14:00:00,39.8,37.9,30.38,NE,34,0.0,3.0,93,0.00,-DZ,,0.00,WeatherDisplay:10.37,2013-04-23 18:00:00,
2013-04-23 14:05:00,39.9,38.0,30.38,NNE,28,1.0,3.0,93,0.00,-DZ,,0.00,WeatherDisplay:10.37,2013-04-23 18:05:00,
2013-04-23 14:10:00,40.0,38.1,30.38,NNE,15,0.0,3.0,93,0.00,-DZ,,0.00,WeatherDisplay:10.37,2013-04-23 18:10:00,
2013-04-23 14:15:00,40.0,38.1,30.38,North,10,0.0,1.0,93,0.00,-DZ,,0.00,WeatherDisplay:10.37,2013-04-23 18:15:00,
2013-04-23 14:20:00,40.0,38.2,30.38,NNE,26,0.0,10.0,93,0.00,OVC,,0.00,WeatherDisplay:10.37,2013-04-23 18:20:00,
2013-04-23 14:25:00,40.1,38.2,30.37,NNE,27,0.0,10.0,93,0.00,OVC,,0.00,WeatherDisplay:10.37,2013-04-23 18:25:00,
2013-04-23 14:30:00,40.1,38.2,30.37,NNE,17,0.0,4.0,93,0.00,OVC,,0.00,WeatherDisplay:10.37,2013-04-23 18:30:00,
2013-04-23 14:35:00,40.1,38.6,30.37,NNE,18,0.0,4.0,94,0.00,OVC,,0.00,WeatherDisplay:10.37,2013-04-23 18:35:00,
2013-04-23 14:40:00,40.1,38.2,30.37,NNE,21,1.0,4.0,93,0.00,OVC,,0.00,WeatherDisplay:10.37,2013-04-23 18:40:00,
2013-04-23 14:45:00,40.1,38.5,30.36,NNE,20,1.0,10.0,94,0.00,OVC,,0.00,WeatherDisplay:10.37,2013-04-23 18:45:00,
2013-04-23 14:50:00,40.1,38.5,30.36,NNE,18,0.0,3.0,94,0.00,OVC,,0.00,WeatherDisplay:10.37,2013-04-23 18:50:00,
2013-04-23 14:55:00,40.2,38.6,30.36,NNE,13,1.0,3.0,94,0.00,OVC,,0.00,WeatherDisplay:10.37,2013-04-23 18:55:00,
2013-04-23 15:00:00,40.2,38.6,30.36,NNE,23,0.0,6.0,94,0.00,OVC,,0.00,WeatherDisplay:10.37,2013-04-23 19:00:00,
2013-04-23 15:05:00,40.3,38.7,30.36,NE,47,1.0,6.0,94,0.00,-DZ,,0.00,WeatherDisplay:10.37,2013-04-23 19:05:00,
2013-04-23 15:10:00,40.4,38.8,30.35,ENE,60,3.0,8.0,94,0.00,-DZ,,0.00,WeatherDisplay:10.37,2013-04-23 19:10:00,
2013-04-23 15:15:00,40.4,38.8,30.34,ENE,59,1.0,10.0,94,0.00,-DZ,,0.00,WeatherDisplay:10.37,2013-04-23 19:15:00,
2013-04-23 15:20:00,40.6,39.0,30.34,NE,40,2.0,8.0,94,0.00,-DZ,,0.00,WeatherDisplay:10.37,2013-04-23 19:20:00,
2013-04-23 15:25:00,40.7,39.1,30.34,NE,41,1.0,3.0,94,0.00,-DZ,,0.00,WeatherDisplay:10.37,2013-04-23 19:25:00,
2013-04-23 15:30:00,40.7,39.1,30.34,ENE,72,2.0,6.0,94,0.00,-DZ,,0.00,WeatherDisplay:10.37,2013-04-23 19:30:00,
2013-04-23 15:35:00,40.7,39.1,30.33,ENE,65,2.0,6.0,94,0.00,-DZ,,0.00,WeatherDisplay:10.37,2013-04-23 19:35:00,
2013-04-23 15:40:00,40.8,39.2,30.33,ENE,68,2.0,5.0,94,0.00,-DZ,,0.00,WeatherDisplay:10.37,2013-04-23 19:40:00,
2013-04-23 15:45:00,40.9,39.3,30.33,NE,51,1.0,4.0,94,0.00,-DZ,,0.00,WeatherDisplay:10.37,2013-04-23 19:45:00,
2013-04-23 15:50:00,40.9,39.3,30.33,NNE,30,0.0,10.0,94,0.00,-DZ,,0.00,WeatherDisplay:10.37,2013-04-23 19:50:00,
2013-04-23 15:55:00,40.9,39.3,30.33,NE,44,1.0,6.0,94,0.00,-DZ,,0.00,WeatherDisplay:10.37,2013-04-23 19:55:00,
2013-04-23 16:00:00,40.9,39.3,30.33,NNE,25,1.0,10.0,94,0.00,-DZ,,0.00,WeatherDisplay:10.37,2013-04-23 20:00:00,
2013-04-23 16:05:00,40.9,39.3,30.33,NNE,28,1.0,3.0,94,0.00,-DZ,,0.00,WeatherDisplay:10.37,2013-04-23 20:05:00,
2013-04-23 16:10:00,40.8,39.2,30.33,NE,54,0.0,5.0,94,0.00,-DZ,,0.00,WeatherDisplay:10.37,2013-04-23 20:10:00,
2013-04-23 16:15:00,40.8,39.2,30.33,NE,37,2.0,4.0,94,0.00,-DZ,,0.00,WeatherDisplay:10.37,2013-04-23 20:15:00,
2013-04-23 16:20:00,40.8,39.2,30.32,NNE,26,1.0,10.0,94,0.00,-DZ,,0.00,WeatherDisplay:10.37,2013-04-23 20:20:00,
2013-04-23 16:25:00,40.7,39.1,30.32,NE,35,1.0,10.0,94,0.00,-DZ,,0.00,WeatherDisplay:10.37,2013-04-23 20:25:00,
2013-04-23 16:30:00,40.7,39.1,30.33,NNE,31,1.0,4.0,94,0.00,-DZ,,0.00,WeatherDisplay:10.37,2013-04-23 20:30:00,
2013-04-23 16:35:00,40.6,39.0,30.33,North,10,1.0,10.0,94,0.00,-DZ,,0.00,WeatherDisplay:10.37,2013-04-23 20:35:00,
2013-04-23 16:40:00,40.6,39.0,30.33,NNE,29,2.0,5.0,94,0.00,-DZ,,0.00,WeatherDisplay:10.37,2013-04-23 20:40:00,
2013-04-23 16:45:00,40.6,39.0,30.33,NNE,33,2.0,10.0,94,0.00,-DZ,,0.00,WeatherDisplay:10.37,2013-04-23 20:45:00,
2013-04-23 16:50:00,40.6,39.0,30.32,NNE,30,1.0,4.0,94,0.00,-DZ,,0.00,WeatherDisplay:10.37,2013-04-23 20:50:00,
2013-04-23 16:55:00,40.6,39.0,30.33,NNE,24,1.0,5.0,94,0.00,-DZ,,0.00,WeatherDisplay:10.37,2013-04-23 20:55:00,
2013-04-23 17:00:00,40.6,39.0,30.33,NNE,29,2.0,9.0,94,0.00,-DZ,,0.00,WeatherDisplay:10.37,2013-04-23 21:00:00,
2013-04-23 17:05:00,40.5,38.9,30.33,NE,47,1.0,7.0,94,0.01,-DZ,,0.01,WeatherDisplay:10.37,2013-04-23 21:05:00,
2013-04-23 17:10:00,40.5,38.9,30.32,NE,49,1.0,10.0,94,0.00,-DZ,,0.01,WeatherDisplay:10.37,2013-04-23 21:10:00,
2013-04-23 17:15:00,40.5,38.9,30.32,NE,46,1.0,6.0,94,0.00,-DZ,,0.01,WeatherDisplay:10.37,2013-04-23 21:15:00,
2013-04-23 17:20:00,40.5,38.9,30.32,NE,50,3.0,5.0,94,0.00,-DZ,,0.01,WeatherDisplay:10.37,2013-04-23 21:20:00,
2013-04-23 17:25:00,40.5,38.9,30.32,NE,51,1.0,6.0,94,0.00,-DZ,,0.01,WeatherDisplay:10.37,2013-04-23 21:25:00,
2013-04-23 17:30:00,40.6,39.0,30.32,NE,44,1.0,10.0,94,0.00,-DZ,,0.01,WeatherDisplay:10.37,2013-04-23 21:30:00,
2013-04-23 17:35:00,40.6,39.0,30.31,NE,34,2.0,10.0,94,0.00,-DZ,,0.01,WeatherDisplay:10.37,2013-04-23 21:35:00,
2013-04-23 17:40:00,40.6,39.0,30.31,NE,41,1.0,10.0,94,0.00,-DZ,,0.01,WeatherDisplay:10.37,2013-04-23 21:40:00,
2013-04-23 17:45:00,40.6,39.0,30.31,NE,42,3.0,6.0,94,0.00,-DZ,,0.01,WeatherDisplay:10.37,2013-04-23 21:45:00,
2013-04-23 17:50:00,40.6,39.0,30.30,NE,39,3.0,7.0,94,0.00,-DZ,,0.01,WeatherDisplay:10.37,2013-04-23 21:50:00,
2013-04-23 17:55:00,40.6,39.0,30.30,NE,41,1.0,6.0,94,0.00,-DZ,,0.01,WeatherDisplay:10.37,2013-04-23 21:55:00,
2013-04-23 18:00:00,40.6,39.0,30.30,NE,42,1.0,3.0,94,0.00,-DZ,,0.01,WeatherDisplay:10.37,2013-04-23 22:00:00,
2013-04-23 18:05:00,40.6,39.0,30.29,NE,49,0.0,3.0,94,0.00,OVC,,0.01,WeatherDisplay:10.37,2013-04-23 22:05:00,
2013-04-23 18:10:00,40.6,39.0,30.29,NNE,33,3.0,10.0,94,0.00,OVC,,0.01,WeatherDisplay:10.37,2013-04-23 22:10:00,
2013-04-23 18:15:00,40.6,38.7,30.29,NE,45,3.0,10.0,93,0.00,OVC,,0.01,WeatherDisplay:10.37,2013-04-23 22:15:00,
2013-04-23 18:20:00,40.6,38.7,30.28,NE,47,2.0,6.0,93,0.00,OVC,,0.01,WeatherDisplay:10.37,2013-04-23 22:20:00,
2013-04-23 18:25:00,40.6,39.0,30.29,NE,45,3.0,10.0,94,0.00,OVC,,0.01,WeatherDisplay:10.37,2013-04-23 22:25:00,
2013-04-23 18:30:00,40.5,38.6,30.28,NE,51,1.0,10.0,93,0.00,OVC,,0.01,WeatherDisplay:10.37,2013-04-23 22:30:00,
2013-04-23 18:35:00,40.5,38.9,30.28,NE,49,1.0,10.0,94,0.00,OVC,,0.01,WeatherDisplay:10.37,2013-04-23 22:35:00,
2013-04-23 18:40:00,40.5,38.9,30.28,NE,46,2.0,7.0,94,0.00,OVC,,0.01,WeatherDisplay:10.37,2013-04-23 22:40:00,
2013-04-23 18:45:00,40.5,38.9,30.28,NE,34,3.0,7.0,94,0.00,OVC,,0.01,WeatherDisplay:10.37,2013-04-23 22:45:00,
2013-04-23 18:50:00,40.4,38.8,30.28,North,4,1.0,10.0,94,0.00,OVC,,0.01,WeatherDisplay:10.37,2013-04-23 22:50:00,
2013-04-23 19:00:00,40.3,38.7,30.28,NNE,32,2.0,10.0,94,0.00,OVC,,0.01,WeatherDisplay:10.37,2013-04-23 23:00:00,
2013-04-23 19:05:00,40.3,38.7,30.28,NNE,22,2.0,5.0,94,0.00,OVC,,0.01,WeatherDisplay:10.37,2013-04-23 23:05:00,
2013-04-23 19:10:00,40.3,38.7,30.27,NNE,30,3.0,10.0,94,0.00,OVC,,0.01,WeatherDisplay:10.37,2013-04-23 23:10:00,
2013-04-23 19:15:00,40.2,38.6,30.27,NNE,33,2.0,5.0,94,0.00,OVC,,0.01,WeatherDisplay:10.37,2013-04-23 23:15:00,
2013-04-23 19:20:00,40.2,38.6,30.27,NE,42,2.0,6.0,94,0.00,OVC,,0.01,WeatherDisplay:10.37,2013-04-23 23:20:00,
2013-04-23 19:25:00,40.2,38.6,30.27,NE,42,1.0,10.0,94,0.00,OVC,,0.01,WeatherDisplay:10.37,2013-04-23 23:25:00,
2013-04-23 19:30:00,40.2,38.6,30.27,NE,39,1.0,10.0,94,0.00,OVC,,0.01,WeatherDisplay:10.37,2013-04-23 23:30:00,
2013-04-23 19:35:00,40.2,38.6,30.27,NE,45,3.0,10.0,94,0.00,OVC,,0.01,WeatherDisplay:10.37,2013-04-23 23:35:00,
2013-04-23 19:40:00,40.1,38.5,30.26,NNE,30,1.0,10.0,94,0.00,OVC,,0.01,WeatherDisplay:10.37,2013-04-23 23:40:00,
2013-04-23 19:45:00,40.1,38.5,30.26,NNE,28,2.0,8.0,94,0.00,OVC,,0.01,WeatherDisplay:10.37,2013-04-23 23:45:00,
2013-04-23 19:50:00,40.1,38.5,30.26,NNE,25,2.0,10.0,94,0.00,OVC,,0.01,WeatherDisplay:10.37,2013-04-23 23:50:00,
2013-04-23 19:55:00,40.1,38.5,30.26,NNE,31,2.0,10.0,94,0.00,OVC,,0.01,WeatherDisplay:10.37,2013-04-23 23:55:00,
2013-04-23 20:00:00,40.0,38.7,30.26,NNE,29,1.0,7.0,95,0.00,OVC,,0.01,WeatherDisplay:10.37,2013-04-24 00:00:00,
2013-04-23 20:05:00,40.0,38.7,30.26,NNE,19,3.0,8.0,95,0.00,OVC,,0.01,WeatherDisplay:10.37,2013-04-24 00:05:00,
2013-04-23 20:10:00,40.0,38.4,30.26,NNE,30,1.0,5.0,94,0.00,OVC,,0.01,WeatherDisplay:10.37,2013-04-24 00:10:00,
2013-04-23 20:15:00,40.0,38.4,30.25,NE,42,2.0,6.0,94,0.00,OVC,,0.01,WeatherDisplay:10.37,2013-04-24 00:15:00,
2013-04-23 20:20:00,40.0,38.7,30.25,NE,39,3.0,5.0,95,0.00,OVC,,0.01,WeatherDisplay:10.37,2013-04-24 00:20:00,
2013-04-23 20:25:00,40.0,38.7,30.25,NE,42,1.0,5.0,95,0.00,OVC,,0.01,WeatherDisplay:10.37,2013-04-24 00:25:00,
2013-04-23 20:30:00,40.0,38.7,30.24,NE,53,3.0,10.0,95,0.00,OVC,,0.01,WeatherDisplay:10.37,2013-04-24 00:30:00,
2013-04-23 20:35:00,40.0,38.7,30.24,NE,54,2.0,5.0,95,0.00,OVC,,0.01,WeatherDisplay:10.37,2013-04-24 00:35:00,
2013-04-23 20:40:00,40.0,38.7,30.23,ENE,58,1.0,5.0,95,0.00,OVC,,0.01,WeatherDisplay:10.37,2013-04-24 00:40:00,
2013-04-23 20:45:00,40.0,38.7,30.23,NE,39,1.0,4.0,95,0.00,OVC,,0.01,WeatherDisplay:10.37,2013-04-24 00:45:00,
2013-04-23 20:50:00,40.0,38.7,30.23,North,11,0.0,3.0,95,0.00,OVC,,0.01,WeatherDisplay:10.37,2013-04-24 00:50:00,
2013-04-23 20:55:00,40.0,38.7,30.23,North,5,1.0,5.0,95,0.00,OVC,,0.01,WeatherDisplay:10.37,2013-04-24 00:55:00,
2013-04-23 21:00:00,40.0,38.7,30.23,North,359,3.0,9.0,95,0.00,OVC,,0.01,WeatherDisplay:10.37,2013-04-24 01:00:00,
2013-04-23 21:05:00,40.0,38.7,30.24,North,6,1.0,5.0,95,0.00,OVC,,0.01,WeatherDisplay:10.37,2013-04-24 01:05:00,
2013-04-23 21:10:00,40.0,38.7,30.24,North,359,2.0,6.0,95,0.00,OVC,,0.01,WeatherDisplay:10.37,2013-04-24 01:10:00,
2013-04-23 21:15:00,40.0,38.7,30.24,NNW,345,1.0,12.0,95,0.00,OVC,,0.01,WeatherDisplay:10.37,2013-04-24 01:15:00,
2013-04-23 21:20:00,40.0,38.7,30.24,North,353,2.0,5.0,95,0.00,OVC,,0.01,WeatherDisplay:10.37,2013-04-24 01:20:00,
2013-04-23 21:25:00,40.0,38.7,30.23,NNE,19,1.0,5.0,95,0.00,OVC,,0.01,WeatherDisplay:10.37,2013-04-24 01:25:00,
2013-04-23 21:30:00,40.1,38.8,30.23,NNE,20,3.0,8.0,95,0.00,OVC,,0.01,WeatherDisplay:10.37,2013-04-24 01:30:00,
2013-04-23 21:35:00,40.1,38.8,30.23,NNE,14,2.0,5.0,95,0.00,OVC,,0.01,WeatherDisplay:10.37,2013-04-24 01:35:00,
2013-04-23 21:40:00,40.1,38.7,30.22,North,355,1.0,3.0,95,0.00,OVC,,0.01,WeatherDisplay:10.37,2013-04-24 01:40:00,
2013-04-23 21:45:00,40.1,38.8,30.22,NNW,348,1.0,4.0,95,0.00,OVC,,0.01,WeatherDisplay:10.37,2013-04-24 01:45:00,
2013-04-23 21:50:00,40.1,38.8,30.22,North,354,2.0,4.0,95,0.00,OVC,,0.01,WeatherDisplay:10.37,2013-04-24 01:50:00,
2013-04-23 21:55:00,40.1,38.8,30.21,North,2,3.0,6.0,95,0.00,OVC,,0.01,WeatherDisplay:10.37,2013-04-24 01:55:00,
2013-04-23 22:00:00,40.1,38.8,30.21,NNE,13,2.0,6.0,95,0.00,OVC,,0.01,WeatherDisplay:10.37,2013-04-24 02:00:00,
2013-04-23 22:05:00,40.2,38.9,30.21,NNE,16,2.0,3.0,95,0.00,OVC,,0.01,WeatherDisplay:10.37,2013-04-24 02:05:00,
2013-04-23 22:10:00,40.2,38.9,30.21,North,7,1.0,3.0,95,0.00,OVC,,0.01,WeatherDisplay:10.37,2013-04-24 02:10:00,
2013-04-23 22:15:00,40.2,38.9,30.20,NNW,328,2.0,4.0,95,0.00,OVC,,0.01,WeatherDisplay:10.37,2013-04-24 02:15:00,
2013-04-23 22:20:00,40.2,38.9,30.20,North,350,0.0,3.0,95,0.00,-DZ,,0.01,WeatherDisplay:10.37,2013-04-24 02:20:00,
2013-04-23 22:25:00,40.3,39.0,30.20,North,349,0.0,4.0,95,0.00,-DZ,,0.01,WeatherDisplay:10.37,2013-04-24 02:25:00,
2013-04-23 22:30:00,40.3,39.0,30.20,North,349,1.0,6.0,95,0.00,-DZ,,0.01,WeatherDisplay:10.37,2013-04-24 02:30:00,
2013-04-23 22:35:00,40.4,39.1,30.20,NNW,342,0.0,6.0,95,0.00,-DZ,,0.01,WeatherDisplay:10.37,2013-04-24 02:35:00,
2013-04-23 22:45:00,40.4,39.1,30.20,NNW,347,1.0,3.0,95,0.00,-DZ,,0.01,WeatherDisplay:10.37,2013-04-24 02:45:00,
2013-04-23 22:50:00,40.4,39.1,30.19,North,9,0.0,4.0,95,0.00,-DZ,,0.01,WeatherDisplay:10.37,2013-04-24 02:50:00,
2013-04-23 22:55:00,40.5,39.2,30.19,North,0,1.0,5.0,95,0.00,-DZ,,0.01,WeatherDisplay:10.37,2013-04-24 02:55:00,
2013-04-23 23:00:00,40.5,39.2,30.19,NNW,341,1.0,5.0,95,0.00,-DZ,,0.01,WeatherDisplay:10.37,2013-04-24 03:00:00,
2013-04-23 23:05:00,40.6,39.3,30.19,NNW,342,1.0,3.0,95,0.00,-DZ,,0.01,WeatherDisplay:10.37,2013-04-24 03:05:00,
2013-04-23 23:10:00,40.6,39.3,30.18,NNW,329,2.0,4.0,95,0.00,-DZ,,0.01,WeatherDisplay:10.37,2013-04-24 03:10:00,
2013-04-23 23:15:00,40.6,39.3,30.18,NNW,342,2.0,4.0,95,0.00,-DZ,,0.01,WeatherDisplay:10.37,2013-04-24 03:15:00,
2013-04-23 23:20:00,40.6,39.3,30.18,North,4,0.0,2.0,95,0.00,-DZ,,0.01,WeatherDisplay:10.37,2013-04-24 03:20:00,
2013-04-23 23:30:00,40.6,39.3,30.18,NNW,338,0.0,4.0,95,0.00,-DZ,,0.01,WeatherDisplay:10.37,2013-04-24 03:30:00,
2013-04-23 23:35:00,40.6,39.3,30.17,NNW,337,0.0,3.0,95,0.00,-DZ,,0.01,WeatherDisplay:10.37,2013-04-24 03:35:00,
2013-04-23 23:40:00,40.7,39.4,30.17,North,0,1.0,3.0,95,0.00,-DZ,,0.01,WeatherDisplay:10.37,2013-04-24 03:40:00,
2013-04-23 23:50:00,40.7,39.4,30.16,NNE,24,2.0,5.0,95,0.01,-RA,,0.02,WeatherDisplay:10.37,2013-04-24 03:50:00,
2013-04-23 23:55:00,40.7,39.4,30.14,NNE,14,1.0,4.0,95,0.00,-RA,,0.02,WeatherDisplay:10.37,2013-04-24 03:55:00,